{"data":{"norad_id":63345,"epoch":"2026-05-25T03:49:02.225856Z","epoch_age_seconds":57807,"freshness":"FRESH","line1":"1 63345U 25059B   26145.15905354  .00002603  00000+0  15999-3 0  9998","line2":"2 63345  97.6097 326.6099 0015682 233.3734 126.6054 15.10864542 64823","mean_motion":15.10864542,"eccentricity":0.0015682,"inclination_deg":97.6097,"raan_deg":326.6099,"arg_perigee_deg":233.3734,"mean_anomaly_deg":126.6054,"bstar":0.00015999,"rev_number":6482,"period_min":95.309669395895,"perigee_km":522.72315864161,"apogee_km":544.40101165226,"semimajor_km":6911.6990851469,"source":"CELESTRAK","updated_at":"2026-05-25T13:38:03.656939Z"}}